Location: Heiligenberg
(48.5381°N, 7.3897°E)
Time: 03:18:19
(UTC+00:00)

Cosmos 614 Rocket - Pass Details

Date: 26 May 2022
Orbit: 732 x 764 km, 74.1° (Epoch: 26 June)

Event Time Altitude Azimuth Distance (km) Brightness Sun altitude
Rises 01:54:36 0° 335° (NNW) 3,216 7.7 -13.0°
Reaches altitude 10° 01:56:59 10° 332° (NNW) 2,291 6.8 -12.8°
Maximum altitude 02:02:08 67° 251° (WSW) 824 4.0 -12.3°
Drops below altitude 10° 02:07:17 10° 170° (S) 2,290 6.1 -11.8°
Enters shadow 02:09:13 - 168° (SSE) 3,037 6.7 -11.6°
